Location: Avenches
(46.8809°N, 7.0410°E)
Time: 12:52:26
(UTC+00:00)

Cosmos 1544 Rocket - Pass Details

Date: 30 March 2020
Orbit: 603 x 632 km, 82.5° (Epoch: 27 May)

Event Time Altitude Azimuth Distance (km) Brightness Sun altitude
Rises 19:22:53 0° 199° (SSW) 2,874 6.9 -14.7°
Reaches altitude 10° 19:25:08 10° 204° (SSW) 1,978 6.2 -15.0°
Maximum altitude 19:29:26 55° 283° (WNW) 756 4.4 -15.7°
Drops below altitude 10° 19:33:49 10° 1° (N) 2,011 6.5 -16.4°
Sets 19:36:07 0° 6° (N) 2,927 7.3 -16.7°
